User: anonymous
Location: Darlington Observatory
(36.4817°N, 105.8156°W)
Time: 10:11:44
(UTC-06:00)
Language:

MOS 1 - Orbit

View from above orbital plane
View from above orbital plane
View from above satellite
View from above satellite

Ground track
Ground track

The orbit data is extracted from the following two-line orbital elements,

1 17527U 87018A   14241.46442093 -.00000115  00000-0 -44753-4 0  6072
2 17527 099.2222 223.5271 0007802 218.4621 293.8911 14.02297806406106
Epoch (UTC): 29 August 2014 11:08:45
Eccentricity: 0.0007802
inclination: 99.2222°
perigee height: 880 km
apogee height: 891 km
right ascension of ascending node: 223.5271°
argument of perigee: 218.4621°
revolutions per day: 14.02297806
mean anomaly at epoch: 293.8911°
orbit number at epoch: 40610

The dashed part of the orbit path shows where the satellite is in the earth's shadow,  

DLR